Location: Dackenheim
(49.5215°N, 8.1854°E)
Time: 17:32:18
(UTC+00:00)

NANOSAT C BR1 - Visible Passes

Search period start: 14 March 2026 00:00
Search period end: 24 March 2026 00:00
Orbit: 477 x 484 km, 98.1° (Epoch: 14 March)

Date Brightness Start Highest point End Pass type
(mag) Time Alt. Az. Time Alt. Az. Time Alt. Az.
14 Mar ? 18:27:29 10° SSW 18:30:41 31° W 18:33:55 10° NNW visible
15 Mar ? 18:01:31 10° S 18:05:03 62° WSW 18:08:37 10° NNW visible
16 Mar ? 19:11:59 10° WSW 19:13:11 11° W 19:14:21 10° WNW visible
17 Mar ? 18:44:31 10° SW 18:47:18 21° W 18:50:06 10° NW visible
18 Mar ? 18:18:07 10° S 18:21:30 40° W 18:24:54 10° NNW visible
20 Mar ? 19:01:30 10° SW 19:03:36 15° W 19:05:42 10° NW visible
21 Mar ? 18:34:31 10° SSW 18:37:37 28° W 18:40:44 10° NW visible
23 Mar ? 19:19:04 10° W 19:19:34 10° W 19:20:04 10° W visible
